Location: Mascot Post Office (historical)
(40.2645°N, 99.5462°W)
Time: 16:50:08
(UTC+00:00)

Cosmos 1980 Rocket - Pass Details

Date: 14 July 2020
Orbit: 828 x 851 km, 71.0° (Epoch: 05 August)

Event Time Altitude Azimuth Distance (km) Brightness Sun altitude
Rises 08:28:34 0° 344° (NNW) 3,426 6.1 -23.5°
Reaches altitude 10° 08:31:18 10° 354° (N) 2,485 5.4 -23.3°
Maximum altitude 08:36:24 33° 58° (ENE) 1,405 3.8 -22.9°
Drops below altitude 10° 08:41:28 10° 121° (ESE) 2,464 4.6 -22.4°
Sets 08:44:08 0° 131° (SE) 3,392 5.2 -22.1°
